TimeCDT,TemperatureF,Dew PointF,Humidity,Sea Level PressureIn,VisibilityMPH,Wind Direction,Wind SpeedMPH,Gust SpeedMPH,PrecipitationIn,Events,Conditions,WindDirDegrees,DateUTC
12:56 AM,51.1,37.0,59,30.03,10.0,East,4.6,-,N/A,,Clear,90,2012-09-30 05:56:00
1:56 AM,50.0,36.0,59,30.03,10.0,Calm,Calm,-,N/A,,Clear,0,2012-09-30 06:56:00
2:56 AM,46.9,36.0,66,30.02,10.0,Calm,Calm,-,N/A,,Clear,0,2012-09-30 07:56:00
3:56 AM,46.0,36.0,68,30.01,10.0,Calm,Calm,-,N/A,,Clear,0,2012-09-30 08:56:00
4:56 AM,45.0,36.0,71,30.00,10.0,Calm,Calm,-,N/A,,Clear,0,2012-09-30 09:56:00
5:56 AM,42.1,36.0,79,30.00,10.0,Calm,Calm,-,N/A,,Clear,0,2012-09-30 10:56:00
6:56 AM,44.1,37.0,76,30.01,10.0,Calm,Calm,-,N/A,,Clear,0,2012-09-30 11:56:00
7:56 AM,41.0,36.0,82,30.00,10.0,Calm,Calm,-,N/A,,Clear,0,2012-09-30 12:56:00
8:56 AM,46.9,39.9,77,30.01,10.0,Calm,Calm,-,N/A,,Clear,0,2012-09-30 13:56:00
9:56 AM,55.9,39.9,55,30.01,10.0,Calm,Calm,-,N/A,,Clear,0,2012-09-30 14:56:00
10:56 AM,66.0,42.1,42,30.00,10.0,Calm,Calm,-,N/A,,Clear,0,2012-09-30 15:56:00
11:56 AM,73.9,43.0,33,29.98,10.0,Variable,4.6,-,N/A,,Clear,0,2012-09-30 16:56:00
12:56 PM,77.0,37.0,24,29.97,10.0,South,9.2,-,N/A,,Clear,170,2012-09-30 17:56:00
1:56 PM,79.0,36.0,21,29.94,10.0,South,10.4,-,N/A,,Clear,170,2012-09-30 18:56:00
3:56 PM,81.0,34.0,18,29.91,10.0,South,11.5,17.3,N/A,,Clear,180,2012-09-30 20:56:00
4:56 PM,79.0,35.1,20,29.91,10.0,SSE,5.8,-,N/A,,Clear,160,2012-09-30 21:56:00
5:56 PM,79.0,34.0,20,29.91,10.0,SSW,6.9,-,N/A,,Clear,210,2012-09-30 22:56:00
6:56 PM,72.0,36.0,27,29.91,10.0,South,4.6,-,N/A,,Clear,170,2012-09-30 23:56:00
7:56 PM,68.0,35.1,30,29.91,10.0,SSE,5.8,-,N/A,,Clear,160,2012-10-01 00:56:00
8:56 PM,57.0,36.0,45,29.92,10.0,Calm,Calm,-,N/A,,Clear,0,2012-10-01 01:56:00
9:56 PM,54.0,37.9,55,29.93,10.0,Calm,Calm,-,N/A,,Clear,0,2012-10-01 02:56:00
10:56 PM,54.0,37.0,53,29.93,10.0,Calm,Calm,-,N/A,,Clear,0,2012-10-01 03:56:00
11:56 PM,53.1,37.0,55,29.92,10.0,Calm,Calm,-,N/A,,Clear,0,2012-10-01 04:56:00